This is the latest recevied weather packets stored in our database for station/object LX2MT-13. If no packets are shown the sender has not sent any weather packets the latest 10 day(s).
| Time | Temp. | Humidity | Pressure | Rain* | Wind** | Luminosity | Snow |
|---|---|---|---|---|---|---|---|
| 1777949731 | 29.44° C | 31% | 1012.2 hPa | - | - | - | - |
| 1777946131 | 29.44° C | 32% | 1012.5 hPa | - | - | - | - |
| 1777942531 | 29.44° C | 32% | 1013 hPa | - | - | - | - |
| 1777938931 | 29.44° C | 32% | 1013.1 hPa | - | - | - | - |
| 1777935331 | 29.44° C | 32% | 1013.4 hPa | - | - | - | - |
| 1777931731 | 29.44° C | 33% | 1013.9 hPa | - | - | - | - |
| 1777928131 | 29.44° C | 33% | 1014.4 hPa | - | - | - | - |
| 1777924531 | 29.44° C | 33% | 1014.4 hPa | - | - | - | - |
| 1777920931 | 29.44° C | 34% | 1014.2 hPa | - | - | - | - |
| 1777917331 | 29.44° C | 34% | 1014.3 hPa | - | - | - | - |
| 1777913731 | 28.33° C | 34% | 1014.5 hPa | - | - | - | - |
| 1777910131 | 28.33° C | 34% | 1014.8 hPa | - | - | - | - |
| 1777906530 | 28.33° C | 34% | 1014.9 hPa | - | - | - | - |
| 1777902930 | 28.33° C | 34% | 1015.3 hPa | - | - | - | - |
| 1777899330 | 27.78° C | 34% | 1015.6 hPa | - | - | - | - |
| 1777895730 | 28.33° C | 33% | 1015.6 hPa | - | - | - | - |
| 1777892130 | 28.33° C | 32% | 1016 hPa | - | - | - | - |
| 1777888530 | 28.33° C | 32% | 1015.8 hPa | - | - | - | - |
| 1777884929 | 28.33° C | 32% | 1015.8 hPa | - | - | - | - |
| 1777881329 | 28.33° C | 32% | 1015.5 hPa | - | - | - | - |
| 1777877729 | 25.56° C | 34% | 1015.3 hPa | - | - | - | - |
| 1777874129 | 25.56° C | 30% | 1015.2 hPa | - | - | - | - |
| 1777870529 | 28.89° C | 29% | 1015.2 hPa | - | - | - | - |
| 1777866929 | 28.89° C | 29% | 1015.1 hPa | - | - | - | - |
| 1777863329 | 28.89° C | 29% | 1015.1 hPa | - | - | - | - |
* Rain since midnight (hover to see other rain measurements)
** Current wind speed in m/s (hover to see current wind gust speed)